Regional Weather Roundup
Issued by NWS

Home | Current Version | Previous Version | Graphics & Text | Print | Product List | Glossary On
Versions: 1 2 3 4 5 6 7 8 9 10 11 12 13 14 15 16 17 18 19 20 21 22 23 24 25 26 27 28 29 30 31 32 33 34 35 36 37 38 39 40 41 42 43 44 45 46 47 48 49 50
000
ASUS43 KLOT 210608
RWRIL

ILLINOIS REGIONAL WEATHER ROUNDUP
NATIONAL WEATHER SERVICE CHICAGO/ROMEOVILLE IL
100 AM CDT THU SEP 21 2017

NOTE: "FAIR" INDICATES FEW OR NO CLOUDS BELOW 12,000 FEET WITH NO
SIGNIFICANT WEATHER AND/OR OBSTRUCTIONS TO VISIBILITY.

* THESE STATIONS ARE NOT UNDER NWS QUALITY CONTROL. THEY ALSO MAY NOT
  REPORT WEATHER SUCH AS PRECIPITATION OR FOG.

ILZ001-002-007-009-015-016-024-210700-
NORTHWEST ILLINOIS

CITY           SKY/WX    TMP DP  RH WIND       PRES   REMARKS
MOLINE         TSTM      70  67  90 W8        29.92F FOG
6HR MIN TEMP:  70; 6HR MAX TEMP:  88; 6HR PCP:  1.22;

STERLING*      LGT RAIN  72  69  90 VRB3      29.94F
SAVANNA*       CLOUDY    74  66  77 E3        29.92F
$$

ILZ003-004-008-010-011-017-018-210700-
NORTH CENTRAL ILLINOIS

CITY           SKY/WX    TMP DP  RH WIND       PRES   REMARKS
ROCKFORD       LGT RAIN  72  69  90 E6        29.96R
6HR MIN TEMP:  72; 6HR MAX TEMP:  85; 6HR PCP:  0.01;

FREEPORT*      LGT RAIN  70  67  91 CALM      29.96F
ROCHELLE*      CLOUDY    72  69  90 CALM      29.95S
DE KALB*       LGT RAIN  75  69  80 CALM      29.97R
PERU*          CLOUDY    74  67  79 CALM      29.94F
$$

ILZ005-006-012>014-019>023-210700-
NORTHEAST ILLINOIS

CITY           SKY/WX    TMP DP  RH WIND       PRES   REMARKS
CHICAGO-OHARE  CLOUDY    81  67  62 SW9       29.94R HX  83
6HR MIN TEMP:  80; 6HR MAX TEMP:  87;

CHICAGO-MIDWAY CLOUDY    79  68  69 SW7       29.95R HX  81
6HR MIN TEMP:  79; 6HR MAX TEMP:  89;

AURORA         CLOUDY    74  69  85 CALM      29.97R
6HR MIN TEMP:  74; 6HR MAX TEMP:  83;

LANSING*       CLOUDY    72  69  92 S6        29.97R
JOLIET*        CLOUDY    76  70  81 SW3       29.96R
WAUKEGAN       CLOUDY    77  69  76 CALM      29.95R
6HR MIN TEMP:  75; 6HR MAX TEMP:  86;

DUPAGE AIRPORT MOCLDY    79  69  71 SW10      29.96R HX  81
6HR MIN TEMP:  75; 6HR MAX TEMP:  86;

KANKAKEE*      CLOUDY    71  67  87 CALM      29.99R
WHEELING       CLOUDY    82  69  64 SW6       29.96R HX  85
6HR MIN TEMP:  81; 6HR MAX TEMP:  88;

MORRIS*        CLOUDY    72  68  89 NW6       29.95R
ROMEOVILLE*    CLOUDY    74  68  82 S7        29.96R
NORTHERLY ISL    N/A     80  65  59 S7          N/A  HX  82
$$

LMZ740>746-210700-
SOUTHERN LAKE MICHIGAN

STATION/POSITION SKY/WX   TEMP    WIND        PRES    VSBY  WAVE
                          AIR SEA DIR/SP/G                  HT/PER
                          (F)     (DEG/KT/KT) (MB)    (MI)  (FT/S)
SOUTHERN BUOY              72 69  160/ 10/ 12 1013.7          1/ 3
WILMETTE HARBOR            76 70  180/  4/  4   N/A           1
HARRISON CRIB              80     180/ 14/ 14   N/A
CALUMET HARBOR             78     180/  7/  9 1013.7R
BURNS HARBOR               77     180/  9/ 13 1014.9R
MICHIGAN CITY              78     160/ 11/ 13   N/A
MICHIGAN CITY 6N           73 70  180/  6/  8   N/A           0
ST. JOSEPH                 74 69  190/  8/ 10 1014.7          1
$$

ILZ025>027-034>036-040-047-049-050-058-095>099-210700-
WEST-CENTRAL ILLINOIS

CITY           SKY/WX    TMP DP  RH WIND       PRES   REMARKS
QUINCY         MOCLDY    78  68  71 S7        29.92R HX  80
GALESBURG*     CLOUDY    73  67  80 NE9       29.95S
MACOMB*        CLOUDY    73  69  87 SE3       29.95R
JACKSONVILLE*  CLOUDY    78  69  76 S6        29.94R
PITTSFIELD*    MOCLDY    78  70  77 S7        29.94R HX  80
$$

ILZ028>032-037-038-041>044-048-051>054-059>061-210700-
CENTRAL ILLINOIS

CITY           SKY/WX    TMP DP  RH WIND       PRES   REMARKS
PONTIAC        MOCLDY    72  71  96 SE3       29.98R
BLOOMINGTON    CLOUDY    75  69  81 SW6       29.99R
DECATUR        MOCLDY    76  69  79 S9        29.97R
PEORIA         CLOUDY    77  70  79 S5        29.95R
6HR MIN TEMP:  77; 6HR MAX TEMP:  87;

LACON*         CLOUDY    75  69  81 S3        29.93F HAZE
LINCOLN*       PTCLDY    76  71  84 CALM      29.96R
SPRINGFIELD    CLEAR     79  71  76 S7        29.96R HX  82
6HR MIN TEMP:  79; 6HR MAX TEMP:  88;

TAYLORVILLE    CLEAR     74  71  88 S6        29.97R
6HR MIN TEMP:  74; 6HR MAX TEMP:  84;

$$

ILZ033-039-045-046-055>057-062-063-210700-
EAST-CENTRAL ILLINOIS

CITY           SKY/WX    TMP DP  RH WIND       PRES   REMARKS
CHAMPAIGN      PTCLDY    75  68  78 S8        29.99R
RANTOUL*       CLOUDY    74  70  88 CALM      29.99R
MATTOON        CLEAR     76  72  87 S6        29.98R
PARIS*         CLOUDY    72  69  90 SE5       30.01R
$$

ILZ079-100>102-210700-
SOUTHWEST ILLINOIS

CITY           SKY/WX    TMP DP  RH WIND       PRES   REMARKS
ALTON          CLEAR     75  71  87 S6        29.96R
BELLEVILLE     CLEAR     73  68  83 CALM      29.97F
CAHOKIA*       CLEAR     77  69  76 S6        29.94F
SPARTA*        CLEAR     77  71  82 S7        29.97F
$$

ILZ064>066-069>071-074>076-080>082-084>086-088>090-092>094-210700-
SOUTH-CENTRAL ILLINOIS

CITY           SKY/WX    TMP DP  RH WIND       PRES   REMARKS
CARBONDALE     CLEAR     72  72 100 S3        29.98S
6HR MIN TEMP:  70; 6HR MAX TEMP:  84;

CAIRO*         CLEAR     70  69  98 CALM      29.99S
EFFINGHAM*     CLEAR     76  72  85 CALM      30.00R
MT. VERNON       N/A     75  71  87 SW3       29.98F
CENTRALIA*     CLEAR     77  73  88 S6        29.96S
SALEM*         CLEAR     78  71  80 S5        29.97S HX  80
METROPOLIS*    CLEAR     70  69  96 CALM      30.00S
$$

ILZ067-068-072-073-078-083-087-091-210700-
SOUTHEAST ILLINOIS

CITY           SKY/WX    TMP DP  RH WIND       PRES   REMARKS
LAWRENCEVILLE  CLEAR     72  70  93 S3        30.00R
FLORA*         CLEAR     73  70  90 CALM      29.99R
FAIRFIELD*     CLEAR     74  71  90 CALM      29.97S
HARRISBURG*    CLEAR     70  69  98 CALM      30.00S
ROBINSON*      CLEAR     70  68  94 CALM      30.00R
CARMI*         CLEAR     69  69  98 SE3       29.99S
$$

ABBREVIATIONS USED IN REMARKS
   TC - TEMPERATURE IN CELSIUS
  WCI - WIND CHILL INDEX
   HX - HEAT INDEX
  VSB - VISIBILITY
$$




USA.gov is the U.S. government's official web portal to all federal, state and local government web resources and services.